When you browse on this site, cookies collect data to enhance your experience and personalize the content and advertising you see.
Visit our Privacy Policy to learn more. By continuing to use the site, you agree to this use of cookies and data.
  • In Slovakia
  • List of Countries
  • For 7 days
  • Water Temperature
  • Weather Map
  • Weather Widgets
  • user-avatar
    Login

    Hourly Weather Mendoza

    Today, 10 December, Tuesday

    Time Temperature Precipitation Wind Pressure Humidity
    00:00 +27°C° 0 mm 2 mps 696 mmHg 28%
    01:00 +26°C° 0 mm 2 mps 696 mmHg 29%
    02:00 +26°C° 0 mm 1 mps 696 mmHg 29%
    03:00 +25°C° 0 mm 1 mps 696 mmHg 30%
    04:00 +25°C° 0 mm 1 mps 696 mmHg 30%
    05:00 +26°C° 0 mm 3 mps 697 mmHg 27%
    06:00 +28°C° 0 mm 4 mps 698 mmHg 25%
    07:00 +30°C° 0 mm 5 mps 698 mmHg 22%
    08:00 +32°C° 0 mm 5 mps 698 mmHg 20%
    09:00 +32°C° 0 mm 5 mps 698 mmHg 19%
    10:00 +33°C° 0 mm 5 mps 698 mmHg 17%
    11:00 +34°C° 0 mm 4 mps 698 mmHg 16%
    12:00 +35°C° 0 mm 3 mps 697 mmHg 15%
    13:00 +36°C° 0 mm 2 mps 696 mmHg 15%
    14:00 +36°C° 0 mm 2 mps 696 mmHg 14%
    15:00 +37°C° 0 mm 2 mps 696 mmHg 14%
    16:00 +37°C° 0 mm 2 mps 695 mmHg 14%
    17:00 +36°C° 0 mm 2 mps 695 mmHg 16%
    18:00 +34°C° 0 mm 1 mps 696 mmHg 18%
    19:00 +32°C° 0 mm 1 mps 696 mmHg 20%
    20:00 +32°C° 0 mm 2 mps 696 mmHg 22%
    21:00 +31°C° 0 mm 2 mps 696 mmHg 23%
    22:00 +31°C° 0 mm 2 mps 696 mmHg 25%
    23:00 +30°C° 0 mm 2 mps 695 mmHg 27%

    Tomorrow, 11 December, Wednesday

    Time Temperature Precipitation Wind Pressure Humidity
    00:00 +29°C° 0 mm 1 mps 695 mmHg 29%
    01:00 +28°C° 0 mm 1 mps 694 mmHg 31%
    02:00 +28°C° 0 mm 1 mps 694 mmHg 31%
    03:00 +27°C° 0 mm 2 mps 694 mmHg 30%
    04:00 +27°C° 0 mm 3 mps 694 mmHg 29%
    05:00 +28°C° 0 mm 4 mps 694 mmHg 27%
    06:00 +28°C° 0 mm 6 mps 695 mmHg 24%
    07:00 +28°C° 0 mm 8 mps 695 mmHg 22%
    08:00 +31°C° 0 mm 8 mps 695 mmHg 21%
    09:00 +32°C° 0 mm 8 mps 695 mmHg 20%
    10:00 +33°C° 0 mm 8 mps 695 mmHg 19%
    11:00 +34°C° 0 mm 7 mps 695 mmHg 18%
    12:00 +35°C° 0 mm 7 mps 695 mmHg 17%
    13:00 +35°C° 0 mm 6 mps 695 mmHg 16%
    14:00 +35°C° 0 mm 6 mps 694 mmHg 16%
    15:00 +35°C° 0 mm 6 mps 694 mmHg 16%
    16:00 +35°C° 0 mm 6 mps 694 mmHg 16%
    17:00 +34°C° 0 mm 5 mps 694 mmHg 19%
    18:00 +32°C° 0 mm 4 mps 694 mmHg 23%
    19:00 +29°C° 0 mm 3 mps 695 mmHg 27%
    20:00 +28°C° 0 mm 3 mps 695 mmHg 29%
    21:00 +27°C° 0 mm 2 mps 696 mmHg 32%
    22:00 +27°C° 0 mm 2 mps 696 mmHg 35%
    23:00 +26°C° 0 mm 2 mps 696 mmHg 36%

    Day after tomorrow, 12 December, Thursday

    Time Temperature Precipitation Wind Pressure Humidity
    00:00 +25°C° 0 mm 3 mps 697 mmHg 37%
    01:00 +25°C° 0 mm 4 mps 697 mmHg 39%
    02:00 +22°C° 0 mm 4 mps 697 mmHg 35%
    03:00 +21°C° 0 mm 3 mps 697 mmHg 31%
    04:00 +19°C° 0 mm 3 mps 698 mmHg 27%
    05:00 +20°C° 0 mm 3 mps 698 mmHg 26%
    06:00 +20°C° 0 mm 4 mps 698 mmHg 24%
    07:00 +20°C° 0 mm 4 mps 699 mmHg 23%
    08:00 +21°C° 0 mm 4 mps 699 mmHg 22%
    09:00 +22°C° 0 mm 4 mps 698 mmHg 20%
    10:00 +23°C° 0 mm 4 mps 698 mmHg 19%
    11:00 +25°C° 0 mm 4 mps 698 mmHg 18%
    12:00 +26°C° 0 mm 4 mps 697 mmHg 17%
    13:00 +27°C° 0 mm 4 mps 697 mmHg 16%
    14:00 +27°C° 0 mm 4 mps 697 mmHg 15%
    15:00 +27°C° 0 mm 4 mps 696 mmHg 15%
    16:00 +28°C° 0 mm 4 mps 696 mmHg 15%
    17:00 +27°C° 0 mm 4 mps 696 mmHg 16%
    18:00 +26°C° 0 mm 3 mps 697 mmHg 17%
    19:00 +25°C° 0 mm 3 mps 697 mmHg 18%
    20:00 +24°C° 0 mm 3 mps 697 mmHg 20%
    21:00 +23°C° 0 mm 2 mps 697 mmHg 21%
    22:00 +21°C° 0 mm 2 mps 698 mmHg 23%
    23:00 +20°C° 0 mm 2 mps 697 mmHg 24%

    13 December, Friday

    Time Temperature Precipitation Wind Pressure Humidity
    00:00 +19°C° 0 mm 2 mps 697 mmHg 25%
    01:00 +20°C° 0 mm 1 mps 696 mmHg 26%
    02:00 +18°C° 0 mm 2 mps 696 mmHg 27%
    03:00 +18°C° 0 mm 2 mps 696 mmHg 27%
    04:00 +18°C° 0 mm 3 mps 696 mmHg 27%
    05:00 +19°C° 0 mm 3 mps 696 mmHg 24%
    06:00 +21°C° 0 mm 3 mps 696 mmHg 22%
    07:00 +22°C° 0 mm 3 mps 697 mmHg 20%
    08:00 +25°C° 0 mm 3 mps 697 mmHg 19%
    09:00 +26°C° 0 mm 3 mps 696 mmHg 17%
    10:00 +27°C° 0 mm 3 mps 696 mmHg 16%
    11:00 +29°C° 0 mm 3 mps 696 mmHg 15%
    12:00 +30°C° 0 mm 3 mps 696 mmHg 15%
    13:00 +31°C° 0 mm 3 mps 695 mmHg 14%
    14:00 +31°C° 0 mm 3 mps 695 mmHg 14%
    15:00 +33°C° 0 mm 3 mps 694 mmHg 14%
    16:00 +33°C° 0 mm 3 mps 694 mmHg 14%
    17:00 +31°C° 0 mm 3 mps 694 mmHg 15%
    18:00 +30°C° 0 mm 3 mps 695 mmHg 17%
    19:00 +29°C° 0 mm 3 mps 695 mmHg 18%
    20:00 +28°C° 0 mm 3 mps 695 mmHg 21%
    21:00 +27°C° 0 mm 3 mps 695 mmHg 23%
    22:00 +26°C° 0 mm 2 mps 695 mmHg 26%
    23:00 +25°C° 0 mm 2 mps 695 mmHg 29%

    14 December, Saturday

    Time Temperature Precipitation Wind Pressure Humidity
    00:00 +24°C° 0 mm 1 mps 695 mmHg 33%
    01:00 +24°C° 0 mm 1 mps 694 mmHg 36%
    02:00 +22°C° 0 mm 3 mps 695 mmHg 36%
    03:00 +21°C° 0 mm 5 mps 695 mmHg 35%
    04:00 +21°C° 0 mm 7 mps 695 mmHg 35%
    05:00 +22°C° 0 mm 7 mps 696 mmHg 34%
    06:00 +22°C° 0 mm 7 mps 696 mmHg 33%
    07:00 +23°C° 0 mm 7 mps 697 mmHg 33%
    08:00 +24°C° 0 mm 6 mps 697 mmHg 31%
    09:00 +27°C° 0 mm 5 mps 697 mmHg 30%
    10:00 +28°C° 0 mm 5 mps 697 mmHg 28%
    11:00 +29°C° 0 mm 4 mps 697 mmHg 26%
    12:00 +30°C° 0 mm 4 mps 696 mmHg 25%
    13:00 +32°C° 0 mm 4 mps 696 mmHg 23%
    14:00 +33°C° 0 mm 4 mps 696 mmHg 22%
    15:00 +33°C° 0 mm 3 mps 696 mmHg 21%
    16:00 +33°C° 0 mm 3 mps 695 mmHg 21%
    17:00 +31°C° 0 mm 3 mps 696 mmHg 22%
    18:00 +30°C° 0 mm 3 mps 696 mmHg 24%
    19:00 +29°C° 0 mm 3 mps 697 mmHg 26%
    20:00 +28°C° 0 mm 3 mps 697 mmHg 30%
    21:00 +27°C° 0 mm 3 mps 698 mmHg 33%
    22:00 +26°C° 0 mm 3 mps 698 mmHg 37%
    23:00 +25°C° 0.2 mm 4 mps 698 mmHg 40%

    15 December, Sunday

    Time Temperature Precipitation Wind Pressure Humidity
    00:00 +23°C° 0.2 mm 5 mps 698 mmHg 43%
    01:00 +23°C° 0.2 mm 6 mps 699 mmHg 46%
    02:00 +22°C° 0 mm 6 mps 699 mmHg 47%
    03:00 +22°C° 0 mm 5 mps 699 mmHg 48%
    04:00 +22°C° 0 mm 5 mps 699 mmHg 48%
    05:00 +22°C° 0 mm 4 mps 699 mmHg 46%
    06:00 +22°C° 0 mm 4 mps 699 mmHg 45%
    07:00 +24°C° 0 mm 3 mps 700 mmHg 43%
    08:00 +25°C° 0 mm 3 mps 700 mmHg 40%
    09:00 +26°C° 0 mm 3 mps 700 mmHg 36%
    10:00 +27°C° 0 mm 2 mps 700 mmHg 32%
    11:00 +28°C° 0 mm 3 mps 699 mmHg 30%
    12:00 +30°C° 0 mm 3 mps 698 mmHg 27%
    13:00 +31°C° 0 mm 3 mps 698 mmHg 25%
    14:00 +31°C° 0 mm 3 mps 697 mmHg 23%
    15:00 +31°C° 0 mm 3 mps 697 mmHg 22%
    16:00 +33°C° 0 mm 3 mps 697 mmHg 21%
    17:00 +31°C° 0 mm 3 mps 697 mmHg 22%
    18:00 +30°C° 0 mm 2 mps 697 mmHg 23%
    19:00 +29°C° 0 mm 2 mps 697 mmHg 24%
    20:00 +28°C° 0 mm 2 mps 698 mmHg 28%
    21:00 +27°C° 0 mm 2 mps 698 mmHg 32%
    22:00 +26°C° 0 mm 2 mps 698 mmHg 36%
    23:00 +25°C° 0 mm 3 mps 698 mmHg 44%
    Show more